EDT,Max TemperatureF,Mean TemperatureF,Min TemperatureF,Max Dew PointF,MeanDew PointF,Min DewpointF,Max Humidity, Mean Humidity, Min Humidity, Max Sea Level PressureIn, Mean Sea Level PressureIn, Min Sea Level PressureIn, Max VisibilityMiles, Mean VisibilityMiles, Min VisibilityMiles, Max Wind SpeedMPH, Mean Wind SpeedMPH, Max Gust SpeedMPH,PrecipitationIn, CloudCover, Events, WindDirDegrees
2013-5-1,71,66,62,64,62,59,100,86,68,30.17,30.12,30.05,10,7,4,18,11,24,0.00,6,,31
2013-5-2,71,68,64,68,64,61,100,87,78,30.14,30.11,30.08,10,7,2,24,17,32,0.00,7,Rain,56
2013-5-3,71,66,60,63,61,55,94,86,73,30.09,30.02,29.98,10,8,5,25,19,36,0.00,6,,52
2013-5-4,68,64,59,64,61,55,100,91,78,29.98,29.92,29.86,10,6,4,24,19,32,0.00,8,Rain-Thunderstorm,60
2013-5-5,71,66,59,70,64,59,100,92,68,29.87,29.81,29.76,10,6,1,18,10,26,0.00,6,Rain-Thunderstorm,117
2013-5-6,71,63,55,61,53,46,100,72,41,29.95,29.89,29.83,10,7,1,14,5,18,0.00,2,,247
2013-5-7,69,62,55,61,55,52,100,78,56,29.99,29.94,29.91,10,7,2,12,3,20,0.00,4,Rain-Thunderstorm,235
2013-5-8,78,64,51,63,57,52,100,76,44,30.07,30.02,29.98,10,7,5,13,6,18,0.00,1,,223
2013-5-9,82,72,62,64,62,59,94,68,51,30.11,30.08,30.04,10,7,5,12,6,17,0.00,1,,214
2013-5-10,82,72,62,68,63,61,100,71,51,30.12,30.07,30.01,10,7,5,12,4,17,0.00,0,,191
2013-5-11,84,76,68,70,67,61,100,78,51,30.04,29.96,29.90,10,7,4,13,6,21,0.00,2,,211
2013-5-12,84,76,69,68,60,48,88,62,35,30.02,29.93,29.88,10,8,4,16,9,24,0.00,2,,269
2013-5-13,75,65,55,50,44,41,72,48,31,30.16,30.08,30.01,10,7,5,15,10,20,0.00,0,,327
2013-5-14,73,63,53,54,49,43,88,59,43,30.27,30.20,30.15,10,7,5,10,5,,0.00,0,,41
2013-5-15,82,72,62,63,58,54,83,64,42,30.20,30.12,30.04,10,7,5,15,7,21,0.00,0,,211
2013-5-16,82,73,64,68,62,55,94,68,51,30.11,30.06,30.02,10,7,3,12,7,18,0.00,0,,222
2013-5-17,84,76,68,70,67,64,100,78,55,30.13,30.09,30.05,10,7,5,10,4,,0.00,0,,193
2013-5-18,80,74,68,72,69,64,100,87,58,30.15,30.11,30.07,10,7,3,10,3,17,0.00,3,Rain,181
2013-5-19,78,74,69,73,71,68,100,90,74,30.13,30.09,30.05,10,8,5,9,2,,0.00,3,Rain-Thunderstorm,171
2013-5-20,82,76,71,75,72,70,100,89,70,30.12,30.07,30.04,10,7,4,12,3,18,0.00,3,Rain-Thunderstorm,184
2013-5-21,80,76,71,73,71,68,100,90,74,30.08,30.03,29.99,10,7,5,10,3,17,0.00,4,Rain-Thunderstorm,169
2013-5-22,82,75,68,73,69,68,100,83,62,30.02,29.99,29.93,10,7,2,9,2,,0.00,2,,152
2013-5-23,87,79,71,73,70,64,100,81,52,29.96,29.93,29.87,10,7,5,14,4,20,0.00,4,Rain,239
2013-5-24,86,78,68,64,57,45,78,53,30,30.16,29.99,29.90,10,8,1,17,9,24,0.00,1,,311
2013-5-25,77,68,60,55,49,41,72,53,36,30.31,30.22,30.16,10,7,4,21,9,22,0.00,0,,70
2013-5-26,80,70,59,63,59,55,100,68,42,30.27,30.20,30.16,10,7,5,12,5,16,0.00,0,,212
2013-5-27,80,71,62,68,64,63,100,76,54,30.25,30.21,30.17,10,7,4,9,2,,0.00,0,,167
2013-5-28,80,74,68,70,66,63,100,76,57,30.25,30.21,30.18,10,8,5,12,3,17,0.00,1,,138
2013-5-29,82,75,68,70,67,64,100,77,58,30.26,30.21,30.16,10,8,5,9,3,,0.00,2,,115
2013-5-30,84,76,69,73,70,68,100,83,62,30.25,30.20,30.17,10,7,5,12,4,17,0.01,2,,116
2013-5-31,84,78,71,73,71,68,100,82,62,30.22,30.18,30.14,10,7,5,12,3,16,0.00,2,,140